Location: Newark
(43.6583°N, 1.6617°E)
Time: 15:14:58
(UTC+00:00)

Vanguard 1 Rocket - Pass Details

Date: 19 August 2019
Orbit: 650 x 4226 km, 34.3° (Epoch: 23 October)

Event Time Altitude Azimuth Distance (km) Brightness Sun altitude
Rises 06:19:54 0° 263° (W) 3,606 9.8 12.9°
Reaches altitude 10° 06:22:08 10° 255° (WSW) 2,909 9.4 13.3°
Maximum altitude 06:28:45 41° 187° (S) 2,133 9.4 14.5°
Drops below altitude 10° 06:40:45 10° 124° (SE) 5,220 12.3 16.7°
Sets 06:46:22 0° 119° (ESE) 6,841 12.9 17.7°
